TimeMDT,TemperatureF,Dew PointF,Humidity,Sea Level PressureIn,VisibilityMPH,Wind Direction,Wind SpeedMPH,Gust SpeedMPH,PrecipitationIn,Events,Conditions,WindDirDegrees,DateUTC
12:08 AM,60.8,41.0,48,29.88,10.0,SE,8.1,-,N/A,,Clear,140,2011-10-05 06:08:00
12:29 AM,59.0,41.0,51,29.87,10.0,SSE,6.9,-,N/A,,Clear,160,2011-10-05 06:29:00
12:48 AM,60.8,41.0,48,29.86,10.0,SSE,6.9,-,N/A,,Clear,150,2011-10-05 06:48:00
1:08 AM,59.0,41.0,51,29.86,10.0,SSE,8.1,-,N/A,,Clear,160,2011-10-05 07:08:00
1:29 AM,60.8,39.2,45,29.85,10.0,South,8.1,-,N/A,,Clear,190,2011-10-05 07:29:00
1:49 AM,59.0,41.0,51,29.85,10.0,SW,4.6,-,N/A,,Clear,230,2011-10-05 07:49:00
2:09 AM,59.0,41.0,51,29.84,10.0,South,10.4,-,N/A,,Clear,190,2011-10-05 08:09:00
2:29 AM,59.0,41.0,51,29.84,10.0,SSW,6.9,-,N/A,,Clear,210,2011-10-05 08:29:00
2:49 AM,57.2,41.0,55,29.83,10.0,Calm,Calm,-,N/A,,Clear,0,2011-10-05 08:49:00
3:09 AM,55.4,39.2,54,29.84,-9999.0,Calm,Calm,-,N/A,,Unknown,0,2011-10-05 09:09:00
3:29 AM,59.0,39.2,48,29.84,10.0,NW,11.5,-,N/A,,Clear,320,2011-10-05 09:29:00
3:49 AM,57.2,41.0,55,29.83,10.0,NNW,11.5,-,N/A,,Clear,330,2011-10-05 09:49:00
4:09 AM,57.2,41.0,55,29.84,10.0,NNW,11.5,-,N/A,,Clear,340,2011-10-05 10:09:00
4:29 AM,55.4,41.0,58,29.84,10.0,NNW,10.4,-,N/A,,Clear,340,2011-10-05 10:29:00
4:49 AM,55.4,41.0,58,29.83,10.0,NNW,9.2,-,N/A,,Clear,330,2011-10-05 10:49:00
5:09 AM,55.4,39.2,54,29.84,10.0,North,8.1,-,N/A,,Clear,350,2011-10-05 11:09:00
5:29 AM,53.6,39.2,58,29.84,10.0,NNW,5.8,-,N/A,,Clear,340,2011-10-05 11:29:00
5:49 AM,51.8,39.2,62,29.84,10.0,WNW,3.5,-,N/A,,Clear,290,2011-10-05 11:49:00
6:48 AM,53.6,39.2,58,29.84,50.0,West,4.6,-,N/A,,Mostly Cloudy,280,2011-10-05 12:48:00
7:48 AM,53.6,39.2,58,29.84,50.0,WSW,3.5,-,N/A,,Mostly Cloudy,250,2011-10-05 13:48:00
8:55 AM,59.0,41.0,51,29.86,50.0,Variable,4.6,-,N/A,,Mostly Cloudy,0,2011-10-05 14:55:00
9:53 AM,62.6,39.2,42,29.85,50.0,Variable,4.6,-,N/A,,Mostly Cloudy,0,2011-10-05 15:53:00
10:53 AM,64.4,37.4,37,29.83,60.0,Calm,Calm,-,N/A,,Mostly Cloudy,0,2011-10-05 16:53:00
11:53 AM,68.0,37.4,33,29.82,60.0,East,6.9,-,N/A,,Partly Cloudy,90,2011-10-05 17:53:00
12:47 PM,69.8,35.6,28,29.79,70.0,ENE,8.1,-,N/A,,Scattered Clouds,70,2011-10-05 18:47:00
1:47 PM,73.4,30.2,20,29.77,80.0,South,9.2,-,N/A,,Scattered Clouds,170,2011-10-05 19:47:00
2:50 PM,75.2,30.2,19,29.72,80.0,ENE,8.1,-,N/A,,Scattered Clouds,70,2011-10-05 20:50:00
3:55 PM,75.2,26.6,17,29.70,50.0,SSE,8.1,-,N/A,,Scattered Clouds,160,2011-10-05 21:55:00
4:48 PM,73.4,26.6,18,29.68,50.0,South,10.4,-,N/A,,Mostly Cloudy,170,2011-10-05 22:48:00
5:47 PM,71.6,26.6,19,29.67,40.0,South,12.7,18.4,N/A,,Mostly Cloudy,190,2011-10-05 23:47:00
6:47 PM,68.0,28.4,23,29.66,40.0,SSE,10.4,-,N/A,,Mostly Cloudy,160,2011-10-06 00:47:00
7:49 PM,66.2,28.4,24,29.66,30.0,South,11.5,-,N/A,,Mostly Cloudy,170,2011-10-06 01:49:00
8:47 PM,64.4,28.4,26,29.67,30.0,SSE,11.5,17.3,N/A,,Mostly Cloudy,160,2011-10-06 02:47:00
9:48 PM,66.2,28.4,24,29.67,30.0,SSW,17.3,23.0,N/A,,Scattered Clouds,200,2011-10-06 03:48:00
11:09 PM,62.6,30.2,30,29.65,10.0,SSW,9.2,-,N/A,,Clear,210,2011-10-06 05:09:00
11:29 PM,60.8,32.0,34,29.64,10.0,SSW,9.2,-,N/A,,Clear,210,2011-10-06 05:29:00
11:48 PM,60.8,30.2,31,29.64,10.0,South,9.2,-,N/A,,Clear,190,2011-10-06 05:48:00